owner,sensor,date,latitude,longitude,vertical_datum,sea_water_temperature,qcFlag
Shell,ioos:station:wmo:42361:2,2023-04-01T00:09:00Z,27.5500,-92.4900,24.0,23.6,11111222
Shell,ioos:station:wmo:42361:2,2023-04-01T00:19:00Z,27.5500,-92.4900,24.0,23.6,11111222
Shell,ioos:station:wmo:42361:2,2023-04-01T00:29:00Z,27.5500,-92.4900,24.0,23.5,11111222
Shell,ioos:station:wmo:42361:2,2023-04-01T00:39:00Z,27.5500,-92.4900,24.0,23.6,11111222
Shell,ioos:station:wmo:42361:2,2023-04-01T00:49:00Z,27.5500,-92.4900,24.0,23.6,11111222
Shell,ioos:station:wmo:42361:2,2023-04-01T00:59:00Z,27.5500,-92.4900,24.0,23.6,11111222
Shell,ioos:station:wmo:42361:2,2023-04-01T01:09:00Z,27.5500,-92.4900,24.0,23.6,11111222
Shell,ioos:station:wmo:42361:2,2023-04-01T01:19:00Z,27.5500,-92.4900,24.0,23.6,11111222
Shell,ioos:station:wmo:42361:2,2023-04-01T01:29:00Z,27.5500,-92.4900,24.0,23.6,11111222
Shell,ioos:station:wmo:42361:2,2023-04-01T01:39:00Z,27.5500,-92.4900,24.0,23.6,11111222
Shell,ioos:station:wmo:42361:2,2023-04-01T01:49:00Z,27.5500,-92.4900,24.0,23.6,11111222
Shell,ioos:station:wmo:42361:2,2023-04-01T01:59:00Z,27.5500,-92.4900,24.0,23.5,11111222
Shell,ioos:station:wmo:42361:2,2023-04-01T02:09:00Z,27.5500,-92.4900,24.0,23.4,11111222
Shell,ioos:station:wmo:42361:2,2023-04-01T02:19:00Z,27.5500,-92.4900,24.0,23.4,11111222
Shell,ioos:station:wmo:42361:2,2023-04-01T02:29:00Z,27.5500,-92.4900,24.0,23.4,11111222
Shell,ioos:station:wmo:42361:2,2023-04-01T02:39:00Z,27.5500,-92.4900,24.0,23.4,11111222
Shell,ioos:station:wmo:42361:2,2023-04-01T02:49:00Z,27.5500,-92.4900,24.0,23.5,11111222
Shell,ioos:station:wmo:42361:2,2023-04-01T02:59:00Z,27.5500,-92.4900,24.0,23.5,11111222
Shell,ioos:station:wmo:42361:2,2023-04-01T03:09:00Z,27.5500,-92.4900,24.0,23.6,11111222
Shell,ioos:station:wmo:42361:2,2023-04-01T03:19:00Z,27.5500,-92.4900,24.0,23.6,11111222
Shell,ioos:station:wmo:42361:2,2023-04-01T03:29:00Z,27.5500,-92.4900,24.0,23.6,11111222
Shell,ioos:station:wmo:42361:2,2023-04-01T03:39:00Z,27.5500,-92.4900,24.0,23.6,11111222
Shell,ioos:station:wmo:42361:2,2023-04-01T03:49:00Z,27.5500,-92.4900,24.0,23.6,11111222
Shell,ioos:station:wmo:42361:2,2023-04-01T03:59:00Z,27.5500,-92.4900,23.9,23.5,11111222
Shell,ioos:station:wmo:42361:2,2023-04-01T04:09:00Z,27.5500,-92.4900,23.9,23.6,11111222
Shell,ioos:station:wmo:42361:2,2023-04-01T04:19:00Z,27.5500,-92.4900,23.9,23.6,11111222
Shell,ioos:station:wmo:42361:2,2023-04-01T04:29:00Z,27.5500,-92.4900,23.9,23.7,11111222
Shell,ioos:station:wmo:42361:2,2023-04-01T04:39:00Z,27.5500,-92.4900,23.9,23.7,11111222
Shell,ioos:station:wmo:42361:2,2023-04-01T04:49:00Z,27.5500,-92.4900,23.9,23.7,11111222
Shell,ioos:station:wmo:42361:2,2023-04-01T04:59:00Z,27.5500,-92.4900,23.9,23.7,11111222
Shell,ioos:station:wmo:42361:2,2023-04-01T05:09:00Z,27.5500,-92.4900,23.9,23.7,11111222
Shell,ioos:station:wmo:42361:2,2023-04-01T05:19:00Z,27.5500,-92.4900,23.9,23.7,11111222
Shell,ioos:station:wmo:42361:2,2023-04-01T05:29:00Z,27.5500,-92.4900,23.9,23.7,11111222
Shell,ioos:station:wmo:42361:2,2023-04-01T05:39:00Z,27.5500,-92.4900,23.9,23.7,11111222
Shell,ioos:station:wmo:42361:2,2023-04-01T05:49:00Z,27.5500,-92.4900,23.9,23.7,11111222
Shell,ioos:station:wmo:42361:2,2023-04-01T05:59:00Z,27.5500,-92.4900,23.9,23.7,11111222
Shell,ioos:station:wmo:42361:2,2023-04-01T06:09:00Z,27.5500,-92.4900,23.9,23.7,11111222
Shell,ioos:station:wmo:42361:2,2023-04-01T06:19:00Z,27.5500,-92.4900,23.9,23.7,11111222
Shell,ioos:station:wmo:42361:2,2023-04-01T06:29:00Z,27.5500,-92.4900,23.8,23.7,11111222
Shell,ioos:station:wmo:42361:2,2023-04-01T06:39:00Z,27.5500,-92.4900,23.8,23.7,11111222
Shell,ioos:station:wmo:42361:2,2023-04-01T06:49:00Z,27.5500,-92.4900,23.8,23.6,11111222
Shell,ioos:station:wmo:42361:2,2023-04-01T06:59:00Z,27.5500,-92.4900,23.8,23.6,11111222
Shell,ioos:station:wmo:42361:2,2023-04-01T07:09:00Z,27.5500,-92.4900,23.8,23.6,11111222
Shell,ioos:station:wmo:42361:2,2023-04-01T07:19:00Z,27.5500,-92.4900,23.8,23.7,11111222
Shell,ioos:station:wmo:42361:2,2023-04-01T07:29:00Z,27.5500,-92.4900,23.8,23.7,11111222
Shell,ioos:station:wmo:42361:2,2023-04-01T07:39:00Z,27.5500,-92.4900,23.8,23.7,11111222
Shell,ioos:station:wmo:42361:2,2023-04-01T07:49:00Z,27.5500,-92.4900,23.8,23.7,11111222
Shell,ioos:station:wmo:42361:2,2023-04-01T07:59:00Z,27.5500,-92.4900,23.8,23.7,11111222
Shell,ioos:station:wmo:42361:2,2023-04-01T08:09:00Z,27.5500,-92.4900,23.8,23.7,11111222
Shell,ioos:station:wmo:42361:2,2023-04-01T08:19:00Z,27.5500,-92.4900,23.8,23.6,11111222
Shell,ioos:station:wmo:42361:2,2023-04-01T08:29:00Z,27.5500,-92.4900,23.8,23.6,11111222
Shell,ioos:station:wmo:42361:2,2023-04-01T08:39:00Z,27.5500,-92.4900,23.8,23.6,11111222
Shell,ioos:station:wmo:42361:2,2023-04-01T08:49:00Z,27.5500,-92.4900,23.8,23.6,11111222
Shell,ioos:station:wmo:42361:2,2023-04-01T08:59:00Z,27.5500,-92.4900,23.7,23.6,11111222
Shell,ioos:station:wmo:42361:2,2023-04-01T09:10:00Z,27.5500,-92.4900,23.7,23.6,11111222
Shell,ioos:station:wmo:42361:2,2023-04-01T09:20:00Z,27.5500,-92.4900,23.7,23.7,11111222
Shell,ioos:station:wmo:42361:2,2023-04-01T09:30:00Z,27.5500,-92.4900,23.7,23.8,11111222
Shell,ioos:station:wmo:42361:2,2023-04-01T09:40:00Z,27.5500,-92.4900,23.7,23.8,11111222
Shell,ioos:station:wmo:42361:2,2023-04-01T09:50:00Z,27.5500,-92.4900,23.7,23.7,11111222
Shell,ioos:station:wmo:42361:2,2023-04-01T10:00:00Z,27.5500,-92.4900,23.7,23.7,11111222
Shell,ioos:station:wmo:42361:2,2023-04-01T10:10:00Z,27.5500,-92.4900,23.7,23.6,11111222
Shell,ioos:station:wmo:42361:2,2023-04-01T10:20:00Z,27.5500,-92.4900,23.7,23.7,11111222
Shell,ioos:station:wmo:42361:2,2023-04-01T10:30:00Z,27.5500,-92.4900,23.7,23.7,11111222
Shell,ioos:station:wmo:42361:2,2023-04-01T10:40:00Z,27.5500,-92.4900,23.7,23.6,11111222
Shell,ioos:station:wmo:42361:2,2023-04-01T10:50:00Z,27.5500,-92.4900,23.7,23.6,11111222
Shell,ioos:station:wmo:42361:2,2023-04-01T11:00:00Z,27.5500,-92.4900,23.7,23.6,11111222
Shell,ioos:station:wmo:42361:2,2023-04-01T11:10:00Z,27.5500,-92.4900,23.7,23.6,11111222
Shell,ioos:station:wmo:42361:2,2023-04-01T11:20:00Z,27.5500,-92.4900,23.7,23.6,11111222
Shell,ioos:station:wmo:42361:2,2023-04-01T11:30:00Z,27.5500,-92.4900,23.7,23.7,11111222
Shell,ioos:station:wmo:42361:2,2023-04-01T11:40:00Z,27.5500,-92.4900,23.7,23.7,11111222
Shell,ioos:station:wmo:42361:2,2023-04-01T11:50:00Z,27.5500,-92.4900,23.7,23.7,11111222
Shell,ioos:station:wmo:42361:2,2023-04-01T12:00:00Z,27.5500,-92.4900,23.7,23.7,11111222
Shell,ioos:station:wmo:42361:2,2023-04-01T12:10:00Z,27.5500,-92.4900,23.8,23.7,11111222
Shell,ioos:station:wmo:42361:2,2023-04-01T12:20:00Z,27.5500,-92.4900,23.8,23.7,11111222
Shell,ioos:station:wmo:42361:2,2023-04-01T12:30:00Z,27.5500,-92.4900,23.8,23.6,11111222
Shell,ioos:station:wmo:42361:2,2023-04-01T12:40:00Z,27.5500,-92.4900,23.8,23.7,11111222
Shell,ioos:station:wmo:42361:2,2023-04-01T12:50:00Z,27.5500,-92.4900,23.8,23.7,11111222
Shell,ioos:station:wmo:42361:2,2023-04-01T13:00:00Z,27.5500,-92.4900,23.8,23.7,11111222
Shell,ioos:station:wmo:42361:2,2023-04-01T13:10:00Z,27.5500,-92.4900,23.8,23.7,11111222
Shell,ioos:station:wmo:42361:2,2023-04-01T13:20:00Z,27.5500,-92.4900,23.8,23.6,11111222
Shell,ioos:station:wmo:42361:2,2023-04-01T13:30:00Z,27.5500,-92.4900,23.8,23.6,11111222
Shell,ioos:station:wmo:42361:2,2023-04-01T13:40:00Z,27.5500,-92.4900,23.8,23.5,11111222
Shell,ioos:station:wmo:42361:2,2023-04-01T13:50:00Z,27.5500,-92.4900,23.8,23.5,11111222
Shell,ioos:station:wmo:42361:2,2023-04-01T14:00:00Z,27.5500,-92.4900,23.8,23.5,11111222
Shell,ioos:station:wmo:42361:2,2023-04-01T14:10:00Z,27.5500,-92.4900,23.8,23.5,11111222
Shell,ioos:station:wmo:42361:2,2023-04-01T14:20:00Z,27.5500,-92.4900,23.8,23.5,11111222
Shell,ioos:station:wmo:42361:2,2023-04-01T14:30:00Z,27.5500,-92.4900,23.9,23.4,11111222
Shell,ioos:station:wmo:42361:2,2023-04-01T14:40:00Z,27.5500,-92.4900,23.9,23.4,11111222
Shell,ioos:station:wmo:42361:2,2023-04-01T14:50:00Z,27.5500,-92.4900,23.9,23.4,11111222
Shell,ioos:station:wmo:42361:2,2023-04-01T15:00:00Z,27.5500,-92.4900,23.9,23.5,11111222
Shell,ioos:station:wmo:42361:2,2023-04-01T15:10:00Z,27.5500,-92.4900,23.9,23.5,11111222
Shell,ioos:station:wmo:42361:2,2023-04-01T15:20:00Z,27.5500,-92.4900,23.9,23.5,11111222
Shell,ioos:station:wmo:42361:2,2023-04-01T15:30:00Z,27.5500,-92.4900,23.9,23.5,11111222
Shell,ioos:station:wmo:42361:2,2023-04-01T15:40:00Z,27.5500,-92.4900,23.9,23.5,11111222
Shell,ioos:station:wmo:42361:2,2023-04-01T15:50:00Z,27.5500,-92.4900,23.9,23.5,11111222
Shell,ioos:station:wmo:42361:2,2023-04-01T16:00:00Z,27.5500,-92.4900,23.9,23.5,11111222
Shell,ioos:station:wmo:42361:2,2023-04-01T16:10:00Z,27.5500,-92.4900,23.9,23.6,11111222
Shell,ioos:station:wmo:42361:2,2023-04-01T16:20:00Z,27.5500,-92.4900,23.9,23.7,11111222
Shell,ioos:station:wmo:42361:2,2023-04-01T16:30:00Z,27.5500,-92.4900,24.0,23.7,11111222
Shell,ioos:station:wmo:42361:2,2023-04-01T16:40:00Z,27.5500,-92.4900,24.0,23.6,11111222
Shell,ioos:station:wmo:42361:2,2023-04-01T16:50:00Z,27.5500,-92.4900,24.0,23.6,11111222
Shell,ioos:station:wmo:42361:2,2023-04-01T17:00:00Z,27.5500,-92.4900,24.0,23.6,11111222
Shell,ioos:station:wmo:42361:2,2023-04-01T17:10:00Z,27.5500,-92.4900,24.0,23.7,11111222
Shell,ioos:station:wmo:42361:2,2023-04-01T17:20:00Z,27.5500,-92.4900,24.0,23.7,11111222
Shell,ioos:station:wmo:42361:2,2023-04-01T17:30:00Z,27.5500,-92.4900,24.0,23.8,11111222
Shell,ioos:station:wmo:42361:2,2023-04-01T17:40:00Z,27.5500,-92.4900,24.0,23.8,11111222
Shell,ioos:station:wmo:42361:2,2023-04-01T17:50:00Z,27.5500,-92.4900,24.0,23.9,11111222
Shell,ioos:station:wmo:42361:2,2023-04-01T18:00:00Z,27.5500,-92.4900,24.0,24.0,11111222
Shell,ioos:station:wmo:42361:2,2023-04-01T18:10:00Z,27.5500,-92.4900,24.0,23.9,11111222
Shell,ioos:station:wmo:42361:2,2023-04-01T18:20:00Z,27.5500,-92.4900,24.0,23.9,11111222
Shell,ioos:station:wmo:42361:2,2023-04-01T18:30:00Z,27.5500,-92.4900,24.0,24.0,11111222
Shell,ioos:station:wmo:42361:2,2023-04-01T18:40:00Z,27.5500,-92.4900,24.0,24.0,11111222
Shell,ioos:station:wmo:42361:2,2023-04-01T18:50:00Z,27.5500,-92.4900,24.0,24.1,11111222
Shell,ioos:station:wmo:42361:2,2023-04-01T19:00:00Z,27.5500,-92.4900,24.0,24.1,11111222
Shell,ioos:station:wmo:42361:2,2023-04-01T19:10:00Z,27.5500,-92.4900,24.0,24.0,11111222
Shell,ioos:station:wmo:42361:2,2023-04-01T19:20:00Z,27.5500,-92.4900,24.0,24.0,11111222
Shell,ioos:station:wmo:42361:2,2023-04-01T19:30:00Z,27.5500,-92.4900,24.0,24.0,11111222
Shell,ioos:station:wmo:42361:2,2023-04-01T19:40:00Z,27.5500,-92.4900,24.0,24.0,11111222
Shell,ioos:station:wmo:42361:2,2023-04-01T19:50:00Z,27.5500,-92.4900,24.0,24.1,11111222
Shell,ioos:station:wmo:42361:2,2023-04-01T20:00:00Z,27.5500,-92.4900,24.0,24.2,11111222
Shell,ioos:station:wmo:42361:2,2023-04-01T20:10:00Z,27.5500,-92.4900,24.0,24.3,11111222
Shell,ioos:station:wmo:42361:2,2023-04-01T20:20:00Z,27.5500,-92.4900,24.0,24.3,11111222
Shell,ioos:station:wmo:42361:2,2023-04-01T20:30:00Z,27.5500,-92.4900,24.0,24.3,11111222
Shell,ioos:station:wmo:42361:2,2023-04-01T20:40:00Z,27.5500,-92.4900,24.0,24.3,11111222
Shell,ioos:station:wmo:42361:2,2023-04-01T20:50:00Z,27.5500,-92.4900,24.0,24.3,11111222
Shell,ioos:station:wmo:42361:2,2023-04-01T21:00:00Z,27.5500,-92.4900,24.0,24.4,11111222
Shell,ioos:station:wmo:42361:2,2023-04-01T21:10:00Z,27.5500,-92.4900,24.0,24.4,11111222
Shell,ioos:station:wmo:42361:2,2023-04-01T21:20:00Z,27.5500,-92.4900,24.0,24.4,11111222
Shell,ioos:station:wmo:42361:2,2023-04-01T21:30:00Z,27.5500,-92.4900,24.0,24.4,11111222
Shell,ioos:station:wmo:42361:2,2023-04-01T21:40:00Z,27.5500,-92.4900,24.0,24.4,11111222
Shell,ioos:station:wmo:42361:2,2023-04-01T21:50:00Z,27.5500,-92.4900,24.0,24.4,11111222
Shell,ioos:station:wmo:42361:2,2023-04-01T22:00:00Z,27.5500,-92.4900,24.0,24.5,11111222
Shell,ioos:station:wmo:42361:2,2023-04-01T22:10:00Z,27.5500,-92.4900,24.0,24.5,11111222
Shell,ioos:station:wmo:42361:2,2023-04-01T22:20:00Z,27.5500,-92.4900,24.0,24.5,11111222
Shell,ioos:station:wmo:42361:2,2023-04-01T22:30:00Z,27.5500,-92.4900,24.0,24.5,11111222
Shell,ioos:station:wmo:42361:2,2023-04-01T22:40:00Z,27.5500,-92.4900,24.0,24.5,11111222
Shell,ioos:station:wmo:42361:2,2023-04-01T22:50:00Z,27.5500,-92.4900,24.0,24.5,11111222
Shell,ioos:station:wmo:42361:2,2023-04-01T23:00:00Z,27.5500,-92.4900,24.0,24.5,11111222
Shell,ioos:station:wmo:42361:2,2023-04-01T23:10:00Z,27.5500,-92.4900,24.0,24.5,11111222
Shell,ioos:station:wmo:42361:2,2023-04-01T23:20:00Z,27.5500,-92.4900,24.0,24.5,11111222
Shell,ioos:station:wmo:42361:2,2023-04-01T23:30:00Z,27.5500,-92.4900,24.0,24.5,11111222
Shell,ioos:station:wmo:42361:2,2023-04-01T23:40:00Z,27.5500,-92.4900,24.0,24.5,11111222
Shell,ioos:station:wmo:42361:2,2023-04-01T23:50:00Z,27.5500,-92.4900,24.0,24.5,11111222
Shell,ioos:station:wmo:42361:2,2023-04-02T00:00:00Z,27.5500,-92.4900,24.0,24.5,11111222
Shell,ioos:station:wmo:42361:2,2023-04-02T00:10:00Z,27.5500,-92.4900,24.0,24.5,11111222
Shell,ioos:station:wmo:42361:2,2023-04-02T00:20:00Z,27.5500,-92.4900,24.0,24.5,11111222
Shell,ioos:station:wmo:42361:2,2023-04-02T00:30:00Z,27.5500,-92.4900,24.0,24.5,11111222
Shell,ioos:station:wmo:42361:2,2023-04-02T00:40:00Z,27.5500,-92.4900,24.0,24.5,11111222
Shell,ioos:station:wmo:42361:2,2023-04-02T00:50:00Z,27.5500,-92.4900,24.0,24.5,11111222
Shell,ioos:station:wmo:42361:2,2023-04-02T01:00:00Z,27.5500,-92.4900,24.0,24.5,11111222
Shell,ioos:station:wmo:42361:2,2023-04-02T01:10:00Z,27.5500,-92.4900,24.0,24.5,11111222
Shell,ioos:station:wmo:42361:2,2023-04-02T01:20:00Z,27.5500,-92.4900,24.0,24.5,11111222
Shell,ioos:station:wmo:42361:2,2023-04-02T01:30:00Z,27.5500,-92.4900,24.0,24.5,11111222
Shell,ioos:station:wmo:42361:2,2023-04-02T01:40:00Z,27.5500,-92.4900,24.0,24.6,11111222
Shell,ioos:station:wmo:42361:2,2023-04-02T01:50:00Z,27.5500,-92.4900,24.0,24.6,11111222
Shell,ioos:station:wmo:42361:2,2023-04-02T02:00:00Z,27.5500,-92.4900,24.0,24.6,11111222
Shell,ioos:station:wmo:42361:2,2023-04-02T02:10:00Z,27.5500,-92.4900,24.0,24.6,11111222
Shell,ioos:station:wmo:42361:2,2023-04-02T02:20:00Z,27.5500,-92.4900,23.9,24.6,11111222
Shell,ioos:station:wmo:42361:2,2023-04-02T02:30:00Z,27.5500,-92.4900,23.9,24.6,11111222
Shell,ioos:station:wmo:42361:2,2023-04-02T02:40:00Z,27.5500,-92.4900,23.9,24.6,11111222
Shell,ioos:station:wmo:42361:2,2023-04-02T02:50:00Z,27.5500,-92.4900,23.9,24.6,11111222
Shell,ioos:station:wmo:42361:2,2023-04-02T03:00:00Z,27.5500,-92.4900,23.9,24.6,11111222
Shell,ioos:station:wmo:42361:2,2023-04-02T03:10:00Z,27.5500,-92.4900,23.9,24.6,11111222
Shell,ioos:station:wmo:42361:2,2023-04-02T03:20:00Z,27.5500,-92.4900,23.9,24.6,11111222
Shell,ioos:station:wmo:42361:2,2023-04-02T03:30:00Z,27.5500,-92.4900,23.9,24.5,11111222
Shell,ioos:station:wmo:42361:2,2023-04-02T03:40:00Z,27.5500,-92.4900,23.9,24.5,11111222
Shell,ioos:station:wmo:42361:2,2023-04-02T03:50:00Z,27.5500,-92.4900,23.9,24.5,11111222
Shell,ioos:station:wmo:42361:2,2023-04-02T04:00:00Z,27.5500,-92.4900,23.9,24.5,11111222
Shell,ioos:station:wmo:42361:2,2023-04-02T04:10:00Z,27.5500,-92.4900,23.9,24.5,11111222
Shell,ioos:station:wmo:42361:2,2023-04-02T04:20:00Z,27.5500,-92.4900,23.9,24.6,11111222
Shell,ioos:station:wmo:42361:2,2023-04-02T04:30:00Z,27.5500,-92.4900,23.9,24.6,11111222
Shell,ioos:station:wmo:42361:2,2023-04-02T04:40:00Z,27.5500,-92.4900,23.9,24.6,11111222
Shell,ioos:station:wmo:42361:2,2023-04-02T04:50:00Z,27.5500,-92.4900,23.9,24.6,11111222
Shell,ioos:station:wmo:42361:2,2023-04-02T05:00:00Z,27.5500,-92.4900,23.9,24.6,11111222
Shell,ioos:station:wmo:42361:2,2023-04-02T05:10:00Z,27.5500,-92.4900,23.9,24.6,11111222
Shell,ioos:station:wmo:42361:2,2023-04-02T05:20:00Z,27.5500,-92.4900,23.9,24.5,11111222
Shell,ioos:station:wmo:42361:2,2023-04-02T05:30:00Z,27.5500,-92.4900,23.9,24.5,11111222
Shell,ioos:station:wmo:42361:2,2023-04-02T05:40:00Z,27.5500,-92.4900,23.9,24.5,11111222
Shell,ioos:station:wmo:42361:2,2023-04-02T05:50:00Z,27.5500,-92.4900,23.9,24.5,11111222
Shell,ioos:station:wmo:42361:2,2023-04-02T06:00:00Z,27.5500,-92.4900,23.9,24.5,11111222
Shell,ioos:station:wmo:42361:2,2023-04-02T06:10:00Z,27.5500,-92.4900,23.9,24.5,11111222
Shell,ioos:station:wmo:42361:2,2023-04-02T06:20:00Z,27.5500,-92.4900,23.8,24.5,11111222
Shell,ioos:station:wmo:42361:2,2023-04-02T06:30:00Z,27.5500,-92.4900,23.8,24.5,11111222
Shell,ioos:station:wmo:42361:2,2023-04-02T06:40:00Z,27.5500,-92.4900,23.8,24.5,11111222
Shell,ioos:station:wmo:42361:2,2023-04-02T06:50:00Z,27.5500,-92.4900,23.8,24.5,11111222
Shell,ioos:station:wmo:42361:2,2023-04-02T07:00:00Z,27.5500,-92.4900,23.8,24.5,11111222
Shell,ioos:station:wmo:42361:2,2023-04-02T07:10:00Z,27.5500,-92.4900,23.8,24.5,11111222
Shell,ioos:station:wmo:42361:2,2023-04-02T07:20:00Z,27.5500,-92.4900,23.8,24.5,11111222
Shell,ioos:station:wmo:42361:2,2023-04-02T07:30:00Z,27.5500,-92.4900,23.8,24.5,11111222
Shell,ioos:station:wmo:42361:2,2023-04-02T07:40:00Z,27.5500,-92.4900,23.8,24.5,11111222
Shell,ioos:station:wmo:42361:2,2023-04-02T07:50:00Z,27.5500,-92.4900,23.8,24.5,11111222
Shell,ioos:station:wmo:42361:2,2023-04-02T08:01:00Z,27.5500,-92.4900,23.8,24.6,11111222
Shell,ioos:station:wmo:42361:2,2023-04-02T08:11:00Z,27.5500,-92.4900,23.8,24.6,11111222
Shell,ioos:station:wmo:42361:2,2023-04-02T08:21:00Z,27.5500,-92.4900,23.8,24.6,11111222
Shell,ioos:station:wmo:42361:2,2023-04-02T08:31:00Z,27.5500,-92.4900,23.8,24.6,11111222
Shell,ioos:station:wmo:42361:2,2023-04-02T08:41:00Z,27.5500,-92.4900,23.8,24.6,11111222
Shell,ioos:station:wmo:42361:2,2023-04-02T08:51:00Z,27.5500,-92.4900,23.7,24.6,11111222
Shell,ioos:station:wmo:42361:2,2023-04-02T09:01:00Z,27.5500,-92.4900,23.7,24.6,11111222
Shell,ioos:station:wmo:42361:2,2023-04-02T09:11:00Z,27.5500,-92.4900,23.7,24.6,11111222
Shell,ioos:station:wmo:42361:2,2023-04-02T09:21:00Z,27.5500,-92.4900,23.7,24.6,11111222
Shell,ioos:station:wmo:42361:2,2023-04-02T09:31:00Z,27.5500,-92.4900,23.7,24.6,11111222
Shell,ioos:station:wmo:42361:2,2023-04-02T09:41:00Z,27.5500,-92.4900,23.7,24.6,11111222
Shell,ioos:station:wmo:42361:2,2023-04-02T09:51:00Z,27.5500,-92.4900,23.7,24.6,11111222
Shell,ioos:station:wmo:42361:2,2023-04-02T10:01:00Z,27.5500,-92.4900,23.7,24.6,11111222
Shell,ioos:station:wmo:42361:2,2023-04-02T10:11:00Z,27.5500,-92.4900,23.7,24.6,11111222
Shell,ioos:station:wmo:42361:2,2023-04-02T10:21:00Z,27.5500,-92.4900,23.7,24.6,11111222
Shell,ioos:station:wmo:42361:2,2023-04-02T10:31:00Z,27.5500,-92.4900,23.7,24.6,11111222
Shell,ioos:station:wmo:42361:2,2023-04-02T10:41:00Z,27.5500,-92.4900,23.7,24.6,11111222
Shell,ioos:station:wmo:42361:2,2023-04-02T10:51:00Z,27.5500,-92.4900,23.7,24.6,11111222
Shell,ioos:station:wmo:42361:2,2023-04-02T11:01:00Z,27.5500,-92.4900,23.7,24.6,11111222
Shell,ioos:station:wmo:42361:2,2023-04-02T11:11:00Z,27.5500,-92.4900,23.7,24.6,11111222
Shell,ioos:station:wmo:42361:2,2023-04-02T11:21:00Z,27.5500,-92.4900,23.7,24.6,11111222
Shell,ioos:station:wmo:42361:2,2023-04-02T11:31:00Z,27.5500,-92.4900,23.7,24.6,11111222
Shell,ioos:station:wmo:42361:2,2023-04-02T11:41:00Z,27.5500,-92.4900,23.7,24.6,11111222
Shell,ioos:station:wmo:42361:2,2023-04-02T11:51:00Z,27.5500,-92.4900,23.7,24.6,11111222
Shell,ioos:station:wmo:42361:2,2023-04-02T12:01:00Z,27.5500,-92.4900,23.7,24.6,11111222
Shell,ioos:station:wmo:42361:2,2023-04-02T12:11:00Z,27.5500,-92.4900,23.7,24.6,11111222
Shell,ioos:station:wmo:42361:2,2023-04-02T12:21:00Z,27.5500,-92.4900,23.7,24.6,11111222
Shell,ioos:station:wmo:42361:2,2023-04-02T12:31:00Z,27.5500,-92.4900,23.7,24.6,11111222
Shell,ioos:station:wmo:42361:2,2023-04-02T12:41:00Z,27.5500,-92.4900,23.7,24.6,11111222
Shell,ioos:station:wmo:42361:2,2023-04-02T12:51:00Z,27.5500,-92.4900,23.7,24.6,11111222
Shell,ioos:station:wmo:42361:2,2023-04-02T13:01:00Z,27.5500,-92.4900,23.7,24.6,11111222
Shell,ioos:station:wmo:42361:2,2023-04-02T13:11:00Z,27.5500,-92.4900,23.8,24.6,11111222
Shell,ioos:station:wmo:42361:2,2023-04-02T13:21:00Z,27.5500,-92.4900,23.8,24.6,11111222
Shell,ioos:station:wmo:42361:2,2023-04-02T13:31:00Z,27.5500,-92.4900,23.8,24.6,11111222
Shell,ioos:station:wmo:42361:2,2023-04-02T13:41:00Z,27.5500,-92.4900,23.8,24.6,11111222
Shell,ioos:station:wmo:42361:2,2023-04-02T13:51:00Z,27.5500,-92.4900,23.8,24.6,11111222
Shell,ioos:station:wmo:42361:2,2023-04-02T14:01:00Z,27.5500,-92.4900,23.8,24.6,11111222
Shell,ioos:station:wmo:42361:2,2023-04-02T14:11:00Z,27.5500,-92.4900,23.8,24.6,11111222
Shell,ioos:station:wmo:42361:2,2023-04-02T14:21:00Z,27.5500,-92.4900,23.8,24.6,11111222
Shell,ioos:station:wmo:42361:2,2023-04-02T14:31:00Z,27.5500,-92.4900,23.8,24.6,11111222
Shell,ioos:station:wmo:42361:2,2023-04-02T14:41:00Z,27.5500,-92.4900,23.8,24.6,11111222
Shell,ioos:station:wmo:42361:2,2023-04-02T14:51:00Z,27.5500,-92.4900,23.8,24.6,11111222
Shell,ioos:station:wmo:42361:2,2023-04-02T15:01:00Z,27.5500,-92.4900,23.8,24.6,11111222
Shell,ioos:station:wmo:42361:2,2023-04-02T15:11:00Z,27.5500,-92.4900,23.8,24.6,11111222
Shell,ioos:station:wmo:42361:2,2023-04-02T15:21:00Z,27.5500,-92.4900,23.9,24.6,11111222
Shell,ioos:station:wmo:42361:2,2023-04-02T15:31:00Z,27.5500,-92.4900,23.9,24.6,11111222
Shell,ioos:station:wmo:42361:2,2023-04-02T15:41:00Z,27.5500,-92.4900,23.9,24.6,11111222
Shell,ioos:station:wmo:42361:2,2023-04-02T15:51:00Z,27.5500,-92.4900,23.9,24.6,11111222
Shell,ioos:station:wmo:42361:2,2023-04-02T16:01:00Z,27.5500,-92.4900,23.9,24.6,11111222
Shell,ioos:station:wmo:42361:2,2023-04-02T16:11:00Z,27.5500,-92.4900,23.9,24.6,11111222
Shell,ioos:station:wmo:42361:2,2023-04-02T16:21:00Z,27.5500,-92.4900,23.9,24.6,11111222
Shell,ioos:station:wmo:42361:2,2023-04-02T16:31:00Z,27.5500,-92.4900,23.9,24.6,11111222
Shell,ioos:station:wmo:42361:2,2023-04-02T16:41:00Z,27.5500,-92.4900,23.9,24.6,11111222
Shell,ioos:station:wmo:42361:2,2023-04-02T16:51:00Z,27.5500,-92.4900,23.9,24.6,11111222
Shell,ioos:station:wmo:42361:2,2023-04-02T17:01:00Z,27.5500,-92.4900,23.9,24.6,11111222
Shell,ioos:station:wmo:42361:2,2023-04-02T17:11:00Z,27.5500,-92.4900,23.9,24.6,11111222
Shell,ioos:station:wmo:42361:2,2023-04-02T17:21:00Z,27.5500,-92.4900,23.9,24.6,11111222
Shell,ioos:station:wmo:42361:2,2023-04-02T17:31:00Z,27.5500,-92.4900,23.9,24.6,11111222
Shell,ioos:station:wmo:42361:2,2023-04-02T17:41:00Z,27.5500,-92.4900,24.0,24.6,11111222
Shell,ioos:station:wmo:42361:2,2023-04-02T17:51:00Z,27.5500,-92.4900,24.0,24.6,11111222
Shell,ioos:station:wmo:42361:2,2023-04-02T18:01:00Z,27.5500,-92.4900,24.0,24.6,11111222
Shell,ioos:station:wmo:42361:2,2023-04-02T18:11:00Z,27.5500,-92.4900,24.0,24.6,11111222
Shell,ioos:station:wmo:42361:2,2023-04-02T18:21:00Z,27.5500,-92.4900,24.0,24.6,11111222
Shell,ioos:station:wmo:42361:2,2023-04-02T18:31:00Z,27.5500,-92.4900,24.0,24.6,11111222
Shell,ioos:station:wmo:42361:2,2023-04-02T18:41:00Z,27.5500,-92.4900,24.0,24.6,11111222
Shell,ioos:station:wmo:42361:2,2023-04-02T18:51:00Z,27.5500,-92.4900,24.0,24.6,11111222
Shell,ioos:station:wmo:42361:2,2023-04-02T19:01:00Z,27.5500,-92.4900,24.0,24.6,11111222
Shell,ioos:station:wmo:42361:2,2023-04-02T19:11:00Z,27.5500,-92.4900,24.0,24.6,11111222
Shell,ioos:station:wmo:42361:2,2023-04-02T19:21:00Z,27.5500,-92.4900,24.0,24.6,11111222
Shell,ioos:station:wmo:42361:2,2023-04-02T19:31:00Z,27.5500,-92.4900,24.0,24.6,11111222
Shell,ioos:station:wmo:42361:2,2023-04-02T19:41:00Z,27.5500,-92.4900,24.0,24.6,11111222
Shell,ioos:station:wmo:42361:2,2023-04-02T19:51:00Z,27.5500,-92.4900,24.0,24.6,11111222
Shell,ioos:station:wmo:42361:2,2023-04-02T20:01:00Z,27.5500,-92.4900,24.0,24.6,11111222
Shell,ioos:station:wmo:42361:2,2023-04-02T20:11:00Z,27.5500,-92.4900,24.0,24.6,11111222
Shell,ioos:station:wmo:42361:2,2023-04-02T20:21:00Z,27.5500,-92.4900,24.0,24.6,11111222
Shell,ioos:station:wmo:42361:2,2023-04-02T20:31:00Z,27.5500,-92.4900,24.0,24.6,11111222
Shell,ioos:station:wmo:42361:2,2023-04-02T20:41:00Z,27.5500,-92.4900,24.0,24.6,11111222